Regional Weather Roundup
Issued by NWS Mt. Holly, NJ

Home | Current Version | Previous Version | Text Only | Print | Product List | Glossary On
Versions: 1 2 3 4 5 6 7 8 9 10 11 12 13 14 15 16 17 18 19 20 21 22 23 24 25 26 27 28
000
ASUS41 KPHI 170812
RWRPHI

REGIONAL WEATHER ROUNDUP
NATIONAL WEATHER SERVICE MOUNT HOLLY NJ
300 AM EST SUN DEC 17 2017

NOTE:  "FAIR" INDICATES FEW OR NO CLOUDS BELOW 12,000 FEET WITH NO
SIGNIFICANT WEATHER AND/OR OBSTRUCTIONS TO VISIBILITY.

 * = STATION DOES NOT REPORT PRECIPITATION (E.G. RAIN, SNOW, ETC.)
        OR FOG.

NJZ015>026-170900-
SOUTHERN NEW JERSEY

CITY           SKY/WX    TMP DP  RH WIND       PRES   REMARKS
POMONA         CLEAR     30  27  88 SW3       30.24R
WILDWOOD*      CLEAR     27  25  92 CALM      30.25R
MILLVILLE      CLEAR     25  23  92 CALM      30.24R
WRIGHTSTOWN    CLOUDY    31  27  85 CALM      30.21R
MOUNT HOLLY    CLOUDY    33  27  78 NE3       30.24R
TRENTON        CLOUDY    34  25  69 CALM      30.23R

$$
NJZ001>014-170900-
NORTHERN NEW JERSEY

CITY           SKY/WX    TMP DP  RH WIND       PRES   REMARKS
SUSSEX         CLOUDY    29  22  75 CALM      30.23R
ANDOVER*         N/A     29  21  72 CALM      30.23R
MORRISTOWN     CLOUDY    32  23  69 CALM      30.25R
NEWARK         CLOUDY    33  23  66 NE5       30.25R WCI  29
TETERBORO      CLOUDY    33  20  58 N6        30.25R WCI  28
CALDWELL       CLOUDY    31  20  63 CALM      30.25R
SOMERVILLE     CLOUDY    31  27  85 CALM      30.23R
ALLAIRE*       CLOUDY    34  25  69 N3        30.24R
TOMS RIVER*    CLOUDY    30  26  85 NE5       30.24S WCI  25

$$
PAZ043-044-047-054-055-060>062-066>071-170900-
EASTERN PENNSYLVANIA

CITY           SKY/WX    TMP DP  RH WIND       PRES   REMARKS
PHILADELPHIA   PTCLDY    35  26  69 CALM      30.24R
NORTH PHILA    CLOUDY    35  27  72 NE6       30.25R WCI  30
BLUE BELL*     CLOUDY    32  28  86 CALM      30.25R
DOYLESTOWN     CLOUDY    33  26  75 CALM      30.23R
QUAKERTOWN*    CLOUDY    32  27  80 CALM      30.23R
PERKASIE*      CLOUDY    32  28  86 CALM      30.23R
POTTSTOWN      CLOUDY    33  26  75 NE3       30.24R
LANCASTER      CLEAR     31  27  85 CALM      30.22R
COATESVILLE    CLOUDY    30  25  80 N3        30.22R
READING        CLOUDY    33  30  88 N6        30.22R WCI  28
ALLENTOWN      CLOUDY    33  25  72 CALM      30.23R
MOUNT POCONO   CLOUDY    23  22  96 W3        30.14R
HAZLETON       CLOUDY    30  23  74 CALM      30.18S
LEHIGHTON      CLOUDY    32  28  86 CALM      30.23R
WILKES BARRE   CLOUDY    28  22  78 CALM      30.20R

$$
DEZALL-MDZ008-012-015-019-020-170900-
DELAWARE AND EASTERN MARYLAND

CITY           SKY/WX    TMP DP  RH WIND       PRES   REMARKS
WILMINGTON     CLEAR     28  26  92 CALM      30.24R
DOVER          CLEAR     31  31  99 SW3       30.23R
GEORGETOWN     CLEAR     29  26  89 CALM      30.25R
EASTON         CLEAR     29  25  84 CALM      30.27R
ABERDEEN       CLEAR    N/A N/A N/A CALM      30.24R
PATUXENT       CLEAR     29  25  85 W3        30.24R
OCEAN CITY     CLEAR     37  30  75 NW6       30.25R WCI  32
WALLOPS ISLAND CLEAR     40  31  70 W8        30.25R WCI  34
CAMBRIDGE      CLEAR     27  25  93 CALM      30.24S
SALISBURY      CLEAR     27  26  96 CALM      30.25R

$$
PAZ001-021-NYZ056-072-MDZ011-DCZ001-170900-
OTHER NEARBY LOCATIONS

CITY           SKY/WX    TMP DP  RH WIND       PRES   REMARKS
HARRISBURG     CLEAR     25  23  92 CALM      30.22R
STATE COLLEGE  CLOUDY    27  25  91 CALM      30.18R
WILLIAMSPORT   CLOUDY    34  25  69 NE3       30.22R
BINGHAMTON     CLOUDY    19  13  77 W3        30.16R
NEW YORK CITY  CLOUDY    33  20  58 CALM      30.27R
BALTIMORE      CLOUDY    28  25  88 W3        30.22S
WASHINGTON DC  CLOUDY    32  28  85 S3        30.25R

$$




USA.gov is the U.S. government's official web portal to all federal, state and local government web resources and services.